Overview Statistics Trail Chart Weather Telemetry Raw packets
 

This is the latest recevied weather packets stored in our database for station/object HP1MRA-15. If no packets are shown the sender has not sent any weather packets the latest 10 day(s).

<< 15 16 17 18 19 20 21 >>
Time Temp. Humidity Pressure Rain* Wind** Luminosity Snow
1788558987 - - 999.5 hPa 0 mm - - -
1788558686 32.22° C 63% 999.4 hPa 0 mm - - -
1788558386 32.22° C 62% 999.4 hPa 0 mm - - -
1788558086 31.67° C 63% 999.3 hPa 0 mm - - -
1788557784 31.67° C 62% 999.3 hPa 0 mm - - -
1788557205 32.22° C 63% 999.4 hPa 0.25 mm - - -
1788556906 32.78° C 63% 999.2 hPa 0.25 mm - - -
1788556627 32.78° C 63% 998.9 hPa 0.25 mm - - -
1788556306 32.78° C 64% 998.9 hPa 0.25 mm - - -
1788556006 32.78° C 61% 999 hPa 0.25 mm - - -
1788555706 - - 999 hPa 0.25 mm - - -
1788555405 33.89° C 63% 998.9 hPa 0.25 mm - - -
1788555106 35° C 62% 999 hPa 0.25 mm - - -
1788554805 36.11° C 60% 999.1 hPa 0 mm - - -
1788554506 36.67° C 59% 998.8 hPa 0 mm - - -
1788554206 36.67° C 58% 998.8 hPa 0 mm - - -
1788553906 37.22° C 58% 999 hPa 0 mm - - -
1788553906 37.22° C 58% 999 hPa 0 mm - - -
1788553605 37.78° C 57% 999.1 hPa 0 mm - - -
1788553304 38.33° C 57% 998.9 hPa 0 mm - - -
1788553005 38.89° C 57% 998.9 hPa 0 mm - - -
1788553004 38.89° C 57% 998.9 hPa 0 mm - - -
1788552703 40° C 56% 998.9 hPa 0 mm - - -
1788552402 40.56° C 58% 998.9 hPa 0 mm - - -
1788552007 40.56° C 58% 999 hPa 0 mm - - -

* Rain latest hour (hover to see other rain measurements)
** Current wind speed in m/s (hover to see current wind gust speed)